Terug naar catalogus

STARLINK-36441

ActiefCommunicatieVLEO
NORAD 67469·PAYLOAD·🇺🇸 United States

Gelanceerd Jan 14, 2026 vanaf Cape Canaveral Space Force Station

Loading…

Volgende Passages (komende 24 uur)

TLE

VersSource: CelesTrak SupGP

Epoch: Sep 15, 2026, 03:41 UTC

1 67469C 26008AA  26258.15395833 -.00049155  00000+0 -17808-2 0  2587
2 67469  43.0022 215.5368 0001352 272.5380 125.6191 15.27595673    19

Volg STARLINK-36441 in realtime met AllMySat

Download on the App Store